Regional Weather Roundup
Issued by NWS

Home | Current Version | Previous Version | Graphics & Text | Print | Product List | Glossary On
Versions: 1 2 3 4 5 6 7 8 9 10 11 12 13 14 15 16 17 18 19 20 21 22 23 24 25 26 27 28 29 30 31 32 33 34 35 36 37 38 39 40 41 42 43 44 45 46 47 48 49 50
000
ASUS45 KBOI 021210
RWRID

IDAHO REGIONAL WEATHER ROUNDUP
NATIONAL WEATHER SERVICE BOISE ID
600 AM MDT SUN AUG 02 2015

NOTE: "FAIR" INDICATES FEW OR NO CLOUDS BELOW 12000 FEET
WITH NO SIGNIFICANT WEATHER AND/OR OBSTRUCTIONS TO VISIBILITY

IDZ012-014-021300-
SOUTHWEST IDAHO


CITY           SKY/WX    TMP DP  RH WIND       PRES   REMARKS
BOISE          CLEAR     70  37  29 CALM      29.88S
CALDWELL       CLEAR     63  45  51 NE3       29.89R
MOUNTAIN HOME  PTCLDY    65  33  30 VRB3      29.89R
$$

IDZ016-017-021300-
SOUTHCENTRAL IDAHO


CITY           SKY/WX    TMP DP  RH WIND       PRES   REMARKS
BURLEY         CLEAR     55  44  66 E3        29.98R
JEROME         CLEAR     59  38  45 NE12      29.97S
TWIN FALLS     CLEAR     73  29  19 S12       29.95R
$$

IDZ019>023-021300-
SOUTHEAST IDAHO


CITY           SKY/WX    TMP DP  RH WIND       PRES   REMARKS
IDAHO FALLS    MOCLDY    48  42  80 NW5       30.06S
POCATELLO      CLEAR     55  40  56 NE7       30.04R
REXBURG        MOCLDY    50  42  74 CALM      30.08R
$$

IDZ006-010-011-018-031-032-021300-
CENTRAL IDAHO MOUNTAINS


CITY           SKY/WX    TMP DP  RH WIND       PRES   REMARKS
MCCALL         MOCLDY    54  40  59 N3        30.07S
HAILEY         PTCLDY    59  36  41 NW7       30.10S
STANLEY          N/A     42  32  67 CALM      30.24S
SALMON         PTCLDY    50  43  76 CALM      30.07R
CHALLIS        CLEAR     58  36  43 E3        30.13R
$$

IDZ002-004-006-007-026-021300-
NORTHERN IDAHO


CITY           SKY/WX    TMP DP  RH WIND       PRES   REMARKS
LEWISTON       PTCLDY    66  28  24 SE6       29.88S
LOWELL           N/A     57  48  72 N3        29.98R
COEUR D`ALENE  CLEAR     55  39  54 NE7       29.92S
MULLAN PASS    MOCLDY    66  14  13 NW5       30.15S
$$



USA.gov is the U.S. government's official web portal to all federal, state and local government web resources and services.